User: anonymous   Login
Location: Mentone
(34.5413°N, 85.5351°W)
Time: 08:53:16
(UTC-05:00)
Language:

Uosat F - Orbit

View from above orbital plane
View from above orbital plane
View from above satellite
View from above satellite

Ground track
Ground track

The orbit data is extracted from the following two-line orbital elements,

1 21575U 91050B   16269.41991725  .00000053  00000-0  31176-4 0  9997
2 21575  98.7642 273.4196 0007580  16.8552 343.2886 14.40759965323155
Epoch (UTC): 25 September 2016 10:04:40
Eccentricity: 0.0007580
inclination: 98.7642°
perigee height: 750 km
apogee height: 761 km
right ascension of ascending node: 273.4196°
argument of perigee: 16.8552°
revolutions per day: 14.40759965
mean anomaly at epoch: 343.2886°
orbit number at epoch: 32315

The dashed part of the orbit path shows where the satellite is in the earth's shadow,  

DLR